Terminal Aerodrome Forecast
Issued by NWS Shreveport, LA

Home | Current Version | Previous Version | Text Only | Print | Product List | Glossary On
Versions: 1 2 3 4 5 6 7 8 9 10 11 12 13
968
FTUS44 KSHV 261120
TAFTYR
TAF
KTYR 261120Z 2612/2712 13009KT P6SM SKC
     FM261300 14008KT P6SM SCT070
     FM261800 16012KT P6SM FEW040 BKN070
     FM262300 15008KT P6SM VCTS SCT020 BKN040CB
     FM270400 16011KT 3SM TSRA BR OVC030CB
     FM270900 09005KT 3SM TSRA BR OVC030CB=

USA.gov is the U.S. government's official web portal to all federal, state and local government web resources and services.